Cecil Field, FL

7:56 PM EST on November 20, 2019 (GMT -0500)
Cecil

Weather History for KVQQ - October, 2019

Change the Weather History Date:

Monday, October 21, 2019

  Actual Average (WUND) Record (WUND)
Temperature  
Mean Temperature 70 °F -  
Max Temperature 84 °F - - (-1)
Min Temperature 57 °F - - (-1)
Cooling Degree Days 6    
Growing Degree Days 20 (Base 50)    
Moisture  
Dew Point 65 °F    
Average Humidity 91    
Maximum Humidity 100    
Minimum Humidity 62    
Precipitation  
Precipitation 0.00 in - - ()
Sea Level Pressure  
Sea Level Pressure 29.98 in    
Wind  
Wind Speed 1 mph ()    
Max Wind Speed 10 mph    
Max Gust Speed -    
Visibility 7.9 miles    
Events Rain    
Averages and records for this station are not official NWS values.
T = Trace of Precipitation, MM = Missing Value Source: Averaged Metar Reports

Daily Weather History Graph

Daily Weather History Graph

Search for Another Location

Airport or City:

Astronomy

Oct. 21, 2019 Rise Set
Actual Time 7:33 AM EDT 6:50 PM EDT
Civil Twilight 7:09 AM EDT 7:14 PM EDT
Nautical Twilight 6:41 AM EDT 7:42 PM EDT
Astronomical Twilight 6:13 AM EDT 8:10 PM EDT
Moon 12:15 AM EDT 2:36 PM EDT
Length of Visible Light 12h 05m
Length of Day
11h 16m
Waning Gibbous, 48% of the Moon is Illuminated
Oct 21
Waning Gibbous
Oct 27
New
Nov 4
First Quarter
Nov 12
Full
Nov 19
Last Quarter

Hourly Weather History & Observations

Time (EDT) Temp. Heat Index Dew Point Humidity Pressure Visibility Wind Dir Wind Speed Gust Speed Precip Events Conditions
12:15 AM 60.8 °F - 59.0 °F 94% 29.98 in 7.0 mi Calm Calm - N/A   Clear
12:35 AM 60.8 °F - 59.0 °F 94% 29.98 in 3.0 mi Calm Calm - N/A   Clear
12:55 AM 60.8 °F - 59.0 °F 94% 29.98 in 8.0 mi Calm Calm - N/A   Clear
1:15 AM 60.8 °F - 59.0 °F 94% 29.98 in 9.0 mi Calm Calm - N/A   Clear
1:55 AM 59.0 °F - 59.0 °F 100% 29.99 in 9.0 mi Calm Calm - N/A   Clear
2:15 AM 59.0 °F - 59.0 °F 100% 29.99 in 9.0 mi Calm Calm - N/A   Clear
2:35 AM 59.0 °F - 57.2 °F 94% 29.99 in 10.0 mi Calm Calm - N/A   Clear
2:55 AM 59.0 °F - 59.0 °F 100% 29.98 in 6.0 mi Calm Calm - N/A   Clear
3:15 AM 59.0 °F - 57.2 °F 94% 29.98 in 10.0 mi Calm Calm - N/A   Clear
3:35 AM 59.0 °F - 57.2 °F 94% 29.98 in 7.0 mi Calm Calm - N/A   Clear
3:55 AM 59.0 °F - 57.2 °F 94% 29.98 in 8.0 mi Calm Calm - N/A   Clear
4:15 AM 59.0 °F - 57.2 °F 94% 29.98 in 10.0 mi Calm Calm - N/A   Scattered Clouds
4:35 AM 59.0 °F - 57.2 °F 94% 29.97 in 7.0 mi Calm Calm - N/A   Scattered Clouds
4:55 AM 57.2 °F - 57.2 °F 100% 29.97 in 4.0 mi Calm Calm - N/A   Overcast
5:15 AM 59.0 °F - 57.2 °F 94% 29.97 in 9.0 mi Calm Calm - N/A   Mostly Cloudy
5:35 AM 59.0 °F - 57.2 °F 94% 29.97 in 10.0 mi Calm Calm - N/A   Mostly Cloudy
5:55 AM 60.8 °F - 59.0 °F 94% 29.98 in 9.0 mi Calm Calm - N/A   Overcast
6:15 AM 60.8 °F - 59.0 °F 94% 29.97 in 9.0 mi Calm Calm - N/A   Overcast
6:35 AM 60.8 °F - 60.8 °F 100% 29.97 in 10.0 mi Calm Calm - N/A   Overcast
6:50 AM 62.6 °F - 60.8 °F 94% 29.97 in 10.0 mi Calm Calm - N/A   Overcast
7:50 AM 64.4 °F - 62.6 °F 94% 29.99 in 10.0 mi Variable 4.6 mph - N/A   Scattered Clouds
8:50 AM 69.8 °F - 66.2 °F 88% 30.00 in 10.0 mi NNE 4.6 mph - N/A   Clear
9:50 AM 78.8 °F - 69.8 °F 74% 30.00 in 10.0 mi Variable 4.6 mph - N/A   Scattered Clouds
10:50 AM 84.2 °F 88.4 °F 69.8 °F 62% 30.00 in 10.0 mi ESE 10.4 mph - N/A   Partly Cloudy
11:50 AM 84.2 °F 89.6 °F 71.6 °F 66% 30.01 in 10.0 mi ESE 10.4 mph - N/A   Mostly Cloudy
12:50 PM 84.2 °F 89.6 °F 71.6 °F 66% 30.01 in 10.0 mi ESE 4.6 mph - N/A   Mostly Cloudy
1:50 PM 82.4 °F 87.2 °F 71.6 °F 70% 29.99 in 6.0 mi South 4.6 mph - N/A   Mostly Cloudy
2:50 PM 82.4 °F 89.5 °F 75.2 °F 79% 29.97 in 7.0 mi Variable 4.6 mph - N/A   Mostly Cloudy
3:50 PM 80.6 °F 86.2 °F 75.2 °F 84% 29.96 in 6.0 mi Variable 4.6 mph - N/A Rain Light Rain
4:50 PM 78.8 °F - 75.2 °F 89% 29.96 in 7.0 mi Variable 4.6 mph - N/A   Mostly Cloudy
5:50 PM 80.6 °F 86.2 °F 75.2 °F 84% 29.95 in 7.0 mi South 4.6 mph - N/A   Mostly Cloudy
6:50 PM 77.0 °F - 77.0 °F 100% 29.96 in 4.0 mi Variable 3.5 mph - N/A Rain Light Rain
7:50 PM 77.0 °F - 75.2 °F 94% 29.95 in 5.0 mi SSW 8.1 mph - N/A Rain Rain
8:50 PM 75.2 °F - 75.2 °F 100% 29.97 in 6.0 mi South 4.6 mph - N/A   Mostly Cloudy
9:50 PM 77.0 °F - 75.2 °F 94% 29.98 in 6.0 mi South 3.5 mph - N/A   Overcast
10:50 PM 75.2 °F - 75.2 °F 100% 29.98 in 7.0 mi South 6.9 mph - N/A   Mostly Cloudy
11:15 PM 75.2 °F - 75.2 °F 100% 29.98 in 8.0 mi Calm Calm - N/A   Mostly Cloudy
11:55 PM 75.2 °F - 75.2 °F 100% 29.98 in 7.0 mi Calm Calm - N/A   Overcast